Regional Weather Roundup
Issued by NWS

Home | Current Version | Previous Version | Graphics & Text | Print | Product List | Glossary On
Versions: 1 2 3 4 5 6 7 8 9 10 11 12 13 14 15 16 17 18 19 20 21 22 23 24 25 26 27 28 29 30 31 32 33 34 35 36 37 38 39 40 41 42 43 44 45 46 47 48 49 50
000
ASUS43 KOAX 222210
RWRNE

WEATHER ROUNDUP FOR NEBRASKA
NATIONAL WEATHER SERVICE OMAHA NE
500 PM CDT WED OCT 22 2014

NOTES: SATELLITE DATA IS BEING USED TO AUGMENT CLOUD COVER ABOVE
       12000 FEET.
       "FAIR" INDICATES FEW OR NO CLOUDS BELOW 12,000 FEET WITH NO
       SIGNIFICANT WEATHER AND/OR OBSTRUCTIONS TO VISIBILITY.

  * THESE STATIONS DO NOT REPORT WEATHER SUCH AS RAIN...SNOW OR FOG.

NEZ001>004-019>022-054>056-222300-
NEBRASKA PANHANDLE

CITY           SKY/WX    TMP DP  RH WIND       PRES   REMARKS
SCOTTSBLUFF    MOSUNNY   67  28  23 NW12      30.02F
ALLIANCE       SUNNY     64  34  32 NW8       30.03F
CHADRON        SUNNY     64  31  28 NW9       30.02S
KIMBALL        CLOUDY    61  32  33 NE7       30.06F
SIDNEY         MOSUNNY   66  33  29 N10       30.06S
$$

NEZ057>060-069>072-079>082-222300-
SOUTHWEST NEBRASKA

CITY           SKY/WX    TMP DP  RH WIND       PRES   REMARKS
NORTH PLATTE   SUNNY     70  49  47 CALM      29.99F
IMPERIAL       SUNNY     71  44  37 N8        30.02R
LEXINGTON      MOSUNNY   67  56  67 CALM      30.00S
MCCOOK         SUNNY     71  51  49 NE9       30.00S
OGALLALA       SUNNY     71  32  23 NW12      30.02S
$$

NEZ005>010-023>029-035>040-094-222300-
NORTH CENTRAL NEBRASKA

CITY           SKY/WX    TMP DP  RH WIND       PRES   REMARKS
VALENTINE      SUNNY     66  41  40 NW12      30.00S
AINSWORTH      MOSUNNY   63  46  53 W3        30.01S
BROKEN BOW     CLOUDY    64  54  69 CALM      30.01R
O`NEILL        CLOUDY    58  54  85 NW6       30.00S
ORD            CLOUDY    62  57  83 CALM      30.00S
THEDFORD       SUNNY     67  46  48 N9        30.01S
$$

NEZ041-046>049-061>064-073>077-083>087-222300-
SOUTH CENTRAL NEBRASKA

CITY           SKY/WX    TMP DP  RH WIND       PRES   REMARKS
GRAND ISLAND   HVY RAIN  62  59  90 S12       30.00F FOG
AURORA         RAIN      61  61 100 W6        30.01S
HASTINGS       CLOUDY    62  58  86 S7        29.99F
HEBRON         LGT RAIN  71  53  52 S8        29.99R
HOLDREGE       CLOUDY    64  57  78 CALM      30.00S
KEARNEY *      CLOUDY    63  59  88 W3        30.01S
YORK           HVY RAIN  63  59  88 W12       30.02R
$$

NEZ011>018-030>034-042>045-222300-
NORTHEAST NEBRASKA

CITY           SKY/WX    TMP DP  RH WIND       PRES   REMARKS
NORFOLK        RAIN      61  59  93 W5        30.00R FOG
ALBION         RAIN      59  57  94 CALM      30.00S
BLAIR          MOSUNNY   74  54  48 SE12G21   29.98S
COLUMBUS *     CLOUDY    63  57  82 W14G20    30.02R
FREMONT        PTSUNNY   77  50  39 S12G21    29.96F
TEKAMAH        PTSUNNY   74  54  49 SE18G29   29.96F
WAYNE          LGT RAIN  62  60  92 W14       30.00R
$$

NEZ050>053-065>068-078-088>093-222300-
SOUTHEAST NEBRASKA

CITY           SKY/WX    TMP DP  RH WIND       PRES   REMARKS
LINCOLN        MOSUNNY   77  51  40 S21       29.97S
OMAHA EPPLEY   PTSUNNY   74  54  49 SE20      29.99S
BEATRICE       PTSUNNY   76  53  43 S20G26    29.99S
FALLS CITY     LGT RAIN  76  56  49 SE16      30.02F
NEBRASKA CITY  MOSUNNY   74  49  40 S16       30.01F
PLATTSMOUTH    MOSUNNY   75  51  41 S14       30.00F
$$

NEZ044-045-051>053-067-222300-
OMAHA AREA

CITY           SKY/WX    TMP DP  RH WIND       PRES   REMARKS
OMAHA EPPLEY   PTSUNNY   74  54  49 SE20      29.99S
BLAIR          MOSUNNY   74  54  48 SE12G21   29.98S
FREMONT        PTSUNNY   77  50  39 S12G21    29.96F
MILLARD        MOSUNNY   76  55  48 SE12G18   29.98S
OFFUTT AFB     MOSUNNY   75  56  53 SE16      29.99S
PLATTSMOUTH    MOSUNNY   75  51  41 S14       30.00F
WAHOO          FAIR      77  47  35 S17G24    29.96F
$$



USA.gov is the U.S. government's official web portal to all federal, state and local government web resources and services.